This is the latest recevied weather packets stored in our database for station/object WV8BRW. If no packets are shown the sender has not sent any weather packets the latest 10 day(s).
| Time | Temp. | Humidity | Pressure | Rain* | Wind** | Luminosity | Snow |
|---|---|---|---|---|---|---|---|
| 1777465725 | 16.67° C | 99% | 1009.3 hPa | 0 mm | - | 55 W/m² | - |
| 1777465422 | 16.67° C | 99% | 1009.3 hPa | 0 mm | - | 60 W/m² | - |
| 1777465120 | 16.67° C | 99% | 1009.4 hPa | 0 mm | - | 69 W/m² | - |
| 1777464816 | 17.22° C | 99% | 1009.6 hPa | 0 mm | - | 74 W/m² | - |
| 1777464511 | 17.22° C | 99% | 1009.2 hPa | 0 mm | - | 78 W/m² | - |
| 1777464208 | 16.67° C | 99% | 1009.4 hPa | 0 mm | - | 74 W/m² | - |
| 1777463908 | 16.67° C | 99% | 1009.2 hPa | 0 mm | - | 69 W/m² | - |
| 1777463604 | 16.67° C | 99% | 1009.3 hPa | 0 mm | - | 64 W/m² | - |
| 1777463299 | 16.67° C | 99% | 1009.4 hPa | 0 mm | - | 59 W/m² | - |
| 1777462995 | 16.67° C | 99% | 1009.6 hPa | 0 mm | - | 60 W/m² | - |
| 1777462691 | 16.67° C | 99% | 1009.7 hPa | 0 mm | - | 49 W/m² | - |
| 1777462386 | 16.11° C | 99% | 1009.6 hPa | 0 mm | - | 33 W/m² | - |
| 1777462083 | 16.11° C | 99% | 1009.8 hPa | 0 mm | - | 26 W/m² | - |
| 1777461780 | 16.67° C | 99% | 1009.7 hPa | 0 mm | - | 26 W/m² | - |
| 1777461475 | 16.67° C | 99% | 1009.7 hPa | 0 mm | - | 27 W/m² | - |
| 1777461172 | 16.67° C | 99% | 1009.5 hPa | 0 mm | - | 24 W/m² | - |
| 1777460872 | 16.11° C | 99% | 1009.5 hPa | 0 mm | - | 17 W/m² | - |
| 1777460568 | 15.56° C | 99% | 1009.5 hPa | 0 mm | - | 14 W/m² | - |
| 1777460264 | 15.56° C | 99% | 1009.4 hPa | 0 mm | - | 11 W/m² | - |
| 1777459961 | 15° C | 99% | 1009.3 hPa | 0 mm | - | 6 W/m² | - |
| 1777459658 | 15° C | 99% | 1009.2 hPa | 0 mm | - | 5 W/m² | - |
| 1777459354 | 15° C | 99% | 1009.3 hPa | 0 mm | - | 2 W/m² | - |
| 1777459053 | 15.56° C | 99% | 1009.4 hPa | 0 mm | - | 0 W/m² | - |
| 1777458749 | 15.56° C | 99% | 1009.1 hPa | 0 mm | - | 0 W/m² | - |
| 1777458446 | 15.56° C | 99% | 1009.1 hPa | 0 mm | - | 0 W/m² | - |
* Rain latest hour (hover to see other rain measurements)
** Current wind speed in m/s (hover to see current wind gust speed)